This demonstration page uses our WeatherBlox Daily Observations layout. Learn more.

Left ArrowRight Arrow

Hourly Observations for September 21, 2015

Temp ( °F °C ) Dew Point ( °F °C ) Humidity (%) Winds ( mph kmh ) Pressure ( in mb ) Visibility ( mi km ) Precip ( " mm )
12:53 am 00:53 Clear 63 17.2 55 12.8 76 76 S 7 11 29.93 1013 10 16 0.00 0.00
1:53 am 01:53 Clear 62 16.7 56 13.3 80 80 S 7 11 29.92 1013 10 16 0.00 0.00
2:53 am 02:53 Clear 61 16.1 57 13.9 87 87 S 8 13 29.92 1013 10 16 0.00 0.00
3:53 am 03:53 Clear 60 15.6 57 13.9 90 90 S 7 11 29.91 1013 10 16 0.00 0.00
4:48 am 04:48 Partly Cloudy 61 16 57 14 88 88 S 7 11 29.91 1013 10 16 0.00 0.00
4:53 am 04:53 Mostly Cloudy 60 15.6 59 15 96 96 S 9 15 29.91 1013 9 14 0.00 0.00
5:10 am 05:10 Cloudy with Mist and Fog 61 16 59 15 94 94 S 9 15 29.91 1013 2 3 0.00 0.00
5:32 am 05:32 Cloudy with Mist and Fog 61 16 61 16 100 100 S 8 13 29.91 1013 1 1 0.00 0.00
5:53 am 05:53 Mostly Cloudy with Mist and Fog 62 16.7 61 16.1 96 96 S 7 11 29.91 1013 1 1 0.00 0.00
6:53 am 06:53 Cloudy with Mist and Fog 63 17.2 63 17.2 100 100 S 8 13 29.92 1013 1 1 0.00 0.00
7:53 am 07:53 Cloudy with Fog 64 17.8 63 17.2 96 96 S 7 11 29.94 1014 1 1 0.00 0.00
8:13 am 08:13 Cloudy with Mist and Fog 64 17.8 64 17.8 100 100 S 8 13 29.91 1013 1 2 0.00 0.00
8:48 am 08:48 Cloudy with Mist and Fog 64 18 64 18 100 100 S 9 15 29.91 1013 2 3 0.00 0.00
8:53 am 08:53 Cloudy with Mist and Fog 65 18.3 64 17.8 97 97 S 9 15 29.95 1014 2 3 0.00 0.00
9:18 am 09:18 Cloudy with Mist and Fog 66 19 64 18 94 94 S 8 13 29.91 1013 3 5 0.00 0.00
9:29 am 09:29 Cloudy with Mist and Fog 66 19 64 18 94 94 S 8 13 29.91 1013 5 8 0.00 0.00
9:53 am 09:53 Cloudy with Mist and Fog 68 20 64 17.8 87 87 S 9 15 29.95 1014 6 10 0.00 0.00
10:16 am 10:16 Cloudy 69 20.6 64 17.8 84 84 S 7 11 29.91 1013 8 13 0.00 0.00
10:53 am 10:53 Cloudy 69 20.6 63 17.2 81 81 S 13 20 29.95 1014 9 14 0.00 0.00
11:53 am 11:53 Cloudy 69 20.6 63 17.2 81 81 S 13 20 29.95 1014 10 16 0.00 0.00
12:53 pm 12:53 Cloudy 71 21.7 63 17.2 76 76 S 9 15 29.94 1014 10 16 0.00 0.00
1:53 pm 13:53 Cloudy 74 23.3 62 16.7 67 67 S 15 24 29.91 1013 10 16 0.00 0.00
2:23 pm 14:23 Mostly Sunny 77 25 62 16.7 60 60 S 14 22 29.85 1011 10 16 0.00 0.00
2:53 pm 14:53 Sunny 77 25 62 16.7 60 60 S 16 26 29.89 1012 10 16 0.00 0.00
3:53 pm 15:53 Sunny 80 26.7 62 16.7 54 54 SSE 13 20 29.86 1011 10 16 0.00 0.00
4:53 pm 16:53 Sunny 80 26.7 62 16.7 54 54 SSE 16 26 29.85 1011 10 16 0.00 0.00
5:53 pm 17:53 Sunny 79 26.1 62 16.7 56 56 S 13 20 29.85 1011 10 16 0.00 0.00
6:53 pm 18:53 Sunny 77 25 63 17.2 62 62 SSE 14 22 29.85 1011 10 16 0.00 0.00
7:53 pm 19:53 Clear 72 22.2 63 17.2 73 73 SSE 13 20 29.86 1011 10 16 0.00 0.00
8:53 pm 20:53 Clear 69 20.6 63 17.2 81 81 SSE 13 20 29.88 1012 10 16 0.00 0.00
9:53 pm 21:53 Clear 68 20 63 17.2 84 84 SSE 10 17 29.91 1013 10 16 0.00 0.00
10:53 pm 22:53 Clear 67 19.4 63 17.2 87 87 S 9 15 29.91 1013 10 16 0.00 0.00
11:53 pm 23:53 Clear 66 18.9 62 16.7 87 87 S 8 13 29.92 1013 10 16 0.00 0.00

Powered by AerisWeather